Tracking 18987 objects as of 26-Feb-2018
HD Live streaming from Space Station
objects crossing your sky now

ARIANE 5 DEB (SYLDA)

Track ARIANE 5 DEB (SYLDA) now!


NORAD ID: 28914
Int'l Code: 2005-049D
Perigee: 657.5 km
Apogee: 36,030.2 km
Inclination: 4.6 °
Period: 644.5 minutes
Semi major axis: 24714 km
RCS: 22.4158 m2 (large)
Launch date: December 21, 2005
Source: France (FR)
Launch site: FRENCH GUIANA (FRGUI)

Note: This is SATELLITE DEBRIS
aabbcc
Your satellite tracking list
Your tracking list is empty




NASA's NSSDC Master Catalog

Two Line Element Set (TLE):
1 28914U 05049D   18053.18622830 -.00000130 +00000-0 -26949-2 0  9997
2 28914 004.6202 023.0537 7156178 218.7255 345.1723 02.23442839099353
Source of the keplerian elements: AFSPC